• In Russia
  • List of Countries
  • For 7 days
  • Water Temperature
  • Satellite Maps
  • Weather Map
  • Weather Widgets
  • user-avatar
    Login

    Hourly Weather Mezobereny

    Today, 17 October, Tuesday

    Time Temperature Precipitation Wind Pressure Humidity
    00:00 +18°C° 0 mm 1 mps 763 mmHg 64%
    01:00 +16°C° 0 mm 1 mps 762 mmHg 65%
    02:00 +16°C° 0 mm 1 mps 762 mmHg 66%
    03:00 +16°C° 0 mm 1 mps 762 mmHg 67%
    04:00 +15°C° 0 mm 1 mps 762 mmHg 69%
    05:00 +15°C° 0 mm 1 mps 762 mmHg 68%
    06:00 +16°C° 0 mm 1 mps 762 mmHg 67%
    07:00 +16°C° 0 mm 1 mps 762 mmHg 67%
    08:00 +19°C° 0 mm 1 mps 762 mmHg 60%
    09:00 +21°C° 0 mm 1 mps 762 mmHg 53%
    10:00 +23°C° 0 mm 1 mps 762 mmHg 46%
    11:00 +24°C° 0 mm 1 mps 762 mmHg 43%
    12:00 +25°C° 0 mm 1 mps 762 mmHg 40%
    13:00 +24°C° 0 mm 0 mps 761 mmHg 37%
    14:00 +26°C° 0 mm 1 mps 761 mmHg 39%
    15:00 +25°C° 0 mm 1 mps 760 mmHg 40%
    16:00 +25°C° 0 mm 1 mps 760 mmHg 42%
    17:00 +23°C° 0 mm 1 mps 760 mmHg 45%
    18:00 +22°C° 0 mm 1 mps 760 mmHg 48%
    19:00 +21°C° 0 mm 1 mps 760 mmHg 51%
    20:00 +20°C° 0 mm 1 mps 760 mmHg 53%
    21:00 +20°C° 0 mm 1 mps 759 mmHg 56%
    22:00 +19°C° 0 mm 1 mps 759 mmHg 58%
    23:00 +19°C° 0 mm 1 mps 759 mmHg 59%

    Tomorrow, 18 October, Wednesday

    Time Temperature Precipitation Wind Pressure Humidity
    00:00 +18°C° 0 mm 1 mps 759 mmHg 60%
    01:00 +18°C° 0 mm 1 mps 759 mmHg 62%
    02:00 +16°C° 0 mm 1 mps 759 mmHg 62%
    03:00 +16°C° 0 mm 1 mps 758 mmHg 63%
    04:00 +16°C° 0 mm 1 mps 758 mmHg 63%
    05:00 +16°C° 0 mm 1 mps 758 mmHg 62%
    06:00 +16°C° 0 mm 1 mps 758 mmHg 61%
    07:00 +16°C° 0 mm 1 mps 758 mmHg 60%
    08:00 +18°C° 0 mm 2 mps 758 mmHg 53%
    09:00 +20°C° 0 mm 2 mps 758 mmHg 46%
    10:00 +23°C° 0 mm 2 mps 758 mmHg 40%
    11:00 +25°C° 0 mm 2 mps 757 mmHg 37%
    12:00 +26°C° 0 mm 2 mps 757 mmHg 34%
    13:00 +27°C° 0 mm 3 mps 756 mmHg 31%
    14:00 +26°C° 0 mm 2 mps 756 mmHg 33%
    15:00 +26°C° 0 mm 2 mps 755 mmHg 35%
    16:00 +25°C° 0 mm 1 mps 755 mmHg 37%
    17:00 +24°C° 0 mm 1 mps 755 mmHg 39%
    18:00 +23°C° 0 mm 1 mps 755 mmHg 41%
    19:00 +22°C° 0 mm 1 mps 755 mmHg 43%
    20:00 +20°C° 0 mm 2 mps 755 mmHg 45%
    21:00 +20°C° 0 mm 2 mps 755 mmHg 46%
    22:00 +19°C° 0 mm 2 mps 755 mmHg 48%
    23:00 +19°C° 0 mm 2 mps 755 mmHg 50%

    Day after tomorrow, 19 October, Thursday

    Time Temperature Precipitation Wind Pressure Humidity
    00:00 +18°C° 0 mm 2 mps 755 mmHg 52%
    01:00 +17°C° 0 mm 2 mps 755 mmHg 55%
    02:00 +17°C° 0 mm 2 mps 755 mmHg 56%
    03:00 +17°C° 0 mm 2 mps 755 mmHg 58%
    04:00 +16°C° 0 mm 2 mps 755 mmHg 60%
    05:00 +16°C° 0 mm 2 mps 755 mmHg 60%
    06:00 +16°C° 0 mm 2 mps 755 mmHg 61%
    07:00 +16°C° 0 mm 2 mps 755 mmHg 61%
    08:00 +18°C° 0 mm 2 mps 755 mmHg 54%
    09:00 +20°C° 0 mm 3 mps 755 mmHg 48%
    10:00 +22°C° 0 mm 3 mps 755 mmHg 41%
    11:00 +24°C° 0 mm 3 mps 755 mmHg 37%
    12:00 +25°C° 0 mm 3 mps 755 mmHg 34%
    13:00 +26°C° 0 mm 3 mps 755 mmHg 30%
    14:00 +25°C° 0 mm 3 mps 754 mmHg 31%
    15:00 +25°C° 0 mm 2 mps 754 mmHg 32%
    16:00 +24°C° 0 mm 2 mps 754 mmHg 34%
    17:00 +23°C° 0 mm 2 mps 754 mmHg 36%
    18:00 +20°C° 0 mm 2 mps 755 mmHg 39%
    19:00 +19°C° 0 mm 2 mps 755 mmHg 42%
    20:00 +19°C° 0 mm 1 mps 755 mmHg 44%
    21:00 +19°C° 0 mm 1 mps 755 mmHg 46%
    22:00 +18°C° 0 mm 1 mps 755 mmHg 48%
    23:00 +18°C° 0 mm 1 mps 755 mmHg 50%

    20 October, Friday

    Time Temperature Precipitation Wind Pressure Humidity
    00:00 +16°C° 0 mm 1 mps 755 mmHg 52%
    01:00 +16°C° 0 mm 1 mps 756 mmHg 54%
    02:00 +15°C° 0 mm 1 mps 756 mmHg 56%
    03:00 +15°C° 0 mm 1 mps 756 mmHg 59%
    04:00 +14°C° 0 mm 1 mps 756 mmHg 61%
    05:00 +14°C° 0 mm 1 mps 756 mmHg 61%
    06:00 +14°C° 0 mm 1 mps 756 mmHg 62%
    07:00 +14°C° 0 mm 1 mps 756 mmHg 63%
    08:00 +16°C° 0 mm 2 mps 757 mmHg 56%
    09:00 +19°C° 0 mm 2 mps 757 mmHg 49%
    10:00 +21°C° 0 mm 2 mps 757 mmHg 42%
    11:00 +23°C° 0 mm 2 mps 757 mmHg 38%
    12:00 +24°C° 0 mm 2 mps 757 mmHg 35%
    13:00 +25°C° 0 mm 2 mps 757 mmHg 31%
    14:00 +24°C° 0 mm 2 mps 757 mmHg 32%
    15:00 +24°C° 0 mm 1 mps 756 mmHg 33%
    16:00 +23°C° 0 mm 1 mps 756 mmHg 34%
    17:00 +22°C° 0 mm 1 mps 757 mmHg 37%
    18:00 +21°C° 0 mm 1 mps 757 mmHg 39%
    19:00 +19°C° 0 mm 1 mps 757 mmHg 41%
    20:00 +19°C° 0 mm 1 mps 757 mmHg 43%
    21:00 +18°C° 0 mm 1 mps 757 mmHg 45%
    22:00 +18°C° 0 mm 1 mps 758 mmHg 46%
    23:00 +16°C° 0 mm 1 mps 758 mmHg 48%

    21 October, Saturday

    Time Temperature Precipitation Wind Pressure Humidity
    00:00 +16°C° 0 mm 1 mps 758 mmHg 50%
    01:00 +16°C° 0 mm 1 mps 758 mmHg 51%
    02:00 +15°C° 0 mm 2 mps 757 mmHg 54%
    03:00 +15°C° 0 mm 2 mps 757 mmHg 56%
    04:00 +14°C° 0 mm 2 mps 757 mmHg 59%
    05:00 +14°C° 0 mm 2 mps 757 mmHg 60%
    06:00 +14°C° 0 mm 2 mps 757 mmHg 62%
    07:00 +14°C° 0 mm 1 mps 758 mmHg 64%
    08:00 +16°C° 0 mm 2 mps 758 mmHg 59%
    09:00 +18°C° 0 mm 2 mps 758 mmHg 53%
    10:00 +20°C° 0 mm 2 mps 758 mmHg 48%
    11:00 +21°C° 0 mm 2 mps 757 mmHg 45%
    12:00 +23°C° 0 mm 2 mps 757 mmHg 42%
    13:00 +24°C° 0 mm 3 mps 756 mmHg 39%
    14:00 +23°C° 0 mm 2 mps 756 mmHg 40%
    15:00 +23°C° 0 mm 2 mps 756 mmHg 42%
    16:00 +22°C° 0 mm 1 mps 756 mmHg 43%
    17:00 +21°C° 0 mm 1 mps 756 mmHg 46%
    18:00 +20°C° 0 mm 1 mps 756 mmHg 49%
    19:00 +19°C° 0 mm 1 mps 756 mmHg 52%
    20:00 +17°C° 0 mm 2 mps 756 mmHg 54%
    21:00 +17°C° 0 mm 2 mps 756 mmHg 56%
    22:00 +16°C° 0 mm 2 mps 756 mmHg 58%
    23:00 +16°C° 0 mm 2 mps 756 mmHg 60%

    22 October, Sunday

    Time Temperature Precipitation Wind Pressure Humidity
    00:00 +15°C° 0 mm 2 mps 756 mmHg 62%
    01:00 +15°C° 0 mm 2 mps 756 mmHg 63%
    02:00 +15°C° 0 mm 2 mps 755 mmHg 64%
    03:00 +14°C° 0 mm 2 mps 755 mmHg 65%
    04:00 +14°C° 0 mm 2 mps 755 mmHg 66%
    05:00 +14°C° 0 mm 2 mps 755 mmHg 65%
    06:00 +14°C° 0 mm 2 mps 755 mmHg 64%
    07:00 +14°C° 0 mm 2 mps 755 mmHg 64%
    08:00 +16°C° 0 mm 3 mps 755 mmHg 57%
    09:00 +18°C° 0 mm 3 mps 754 mmHg 50%
    10:00 +20°C° 0 mm 3 mps 754 mmHg 43%
    11:00 +22°C° 0 mm 4 mps 754 mmHg 42%
    12:00 +23°C° 0 mm 4 mps 753 mmHg 40%
    13:00 +25°C° 0 mm 5 mps 753 mmHg 39%
    14:00 +23°C° 0 mm 4 mps 752 mmHg 41%
    15:00 +23°C° 0 mm 4 mps 752 mmHg 43%
    16:00 +22°C° 0 mm 3 mps 752 mmHg 45%
    17:00 +21°C° 0 mm 3 mps 752 mmHg 50%
    18:00 +20°C° 0 mm 3 mps 752 mmHg 55%
    19:00 +19°C° 0 mm 3 mps 752 mmHg 60%
    20:00 +18°C° 0 mm 4 mps 752 mmHg 63%
    21:00 +17°C° 0 mm 4 mps 753 mmHg 65%
    22:00 +15°C° 0 mm 4 mps 753 mmHg 68%
    23:00 +15°C° 0.2 mm 4 mps 753 mmHg 68%
    Show more